sat.trackr.live / text

‹ back to catalog

STARLINK-11319 [DTC]

NORAD 61251 · 2024-175J

PAYLOAD ACTIVE UNKNOWN

§ Identity

Operator
Country
US
Launch date
2024-09-25
Launch site
AFWTR
Launch vehicle
Mass (kg)
RCS (m²)

Purposes: comms

External: N2YO · Heavens-Above · Gunter

§ Orbital elements

Epoch: 2026-09-21T00:51:29.761632Z

Period
91.74 min
Inclination
53.1588°
Eccentricity
0.0000935
Mean motion
15.69708039 rev/d
Perigee alt
359.1 km
Apogee alt
360.4 km
Semi-major
6,737.9 km
B*
-2.4815e-7
RAAN
173.5833°
Arg perigee
79.3367°
Mean anomaly
280.7756°
Rev number
11,404

§ Raw data

STARLINK-11319 [DTC]1 61251U 24175J   26264.03576113 -.00000618  00000+0 -24815-6 0  99922 61251  53.1588 173.5833 0000935  79.3367 280.7756 15.69708039114042

JSON: /api/v1/satellites/61251 · /tle

For live sub-satellite position, see the globe view (requires WebGL).

§ Visibility from observer

Set your observer location to see the next 7 days of passes ≥ 10°. The values pass through the URL so the page stays shareable.

No JS? Fill the form by hand. The geolocation button needs JavaScript.